[[{"header":{"parameterUnit":"m.s-1","parameterCategory":1,"la1":30.2991,"la2":30.254,"lo1":-89.0895,"lo2":-89.0444,"dy":0.0017,"dx":0.0017,"nx":28,"ny":28,"refTime":"2023-11-14T03:00:00:Z","depth":0,"parameterNumber":2,"parameterNumberName":"U-component_of_WINDS"},"data":[0,0,0,0,0,0,0,0,0,0,0,0,0,0,0,0,0,0,0,0,0,0,0,0,0,0,0,0,0,0,0,0,0,0,0,0,0,0,0,0,0,0,0,0,0,0,0,0,0,0,0,0,0,0,0,0,0,0,-3.9051,-3.9052,0,-3.9104,-3.9104,-3.9105,-3.9006,-3.9002,-3.8999,-3.8996,-3.905,-3.9054,-3.9058,0,0,0,0,0,0,0,0,0,0,0,0,0,-3.8866,-3.887,-3.9051,-3.9052,-3.9053,-3.9104,-3.9104,-3.9105,-3.9006,-3.9002,-3.8998,-3.8995,-3.9048,-3.9053,-3.9059,0,0,0,0,0,0,0,0,0,0,0,0,0,-3.8935,-3.8871,-3.9051,-3.901,-3.9006,-3.9103,-3.9104,-3.9105,-3.9007,-3.9002,-3.8997,-3.8993,-3.9046,-3.9053,-3.906,-3.92,0,0,-3.908,-3.9083,0,0,0,0,0,0,0,0,-3.8931,-3.8942,-3.9015,-3.9013,-3.9009,-3.9043,-3.9058,-3.9137,-3.9008,-3.9007,-3.8996,-3.899,-3.9051,-3.9057,-3.9078,-3.9202,-3.9204,-3.9081,-3.9085,-3.9088,-3.909,0,0,0,0,0,0,0,-3.8927,-3.8939,-3.9072,-3.9016,-3.9013,-3.8988,-3.8992,-3.9073,-3.9056,-3.9007,-3.9,-3.9007,-3.9049,-3.9072,-3.9079,-3.9205,-3.9081,-3.9086,-3.9091,-3.9093,-3.9447,-3.9452,0,0,0,0,0,0,-3.8927,-3.8936,-3.907,-3.9074,-3.8957,-3.8995,-3.9,-3.9037,-3.9055,-3.9053,-3.9011,-3.9002,-3.9063,-3.9071,-3.908,-3.9246,-3.9088,-3.9094,-3.9098,-3.9441,-3.9448,-3.9454,0,0,0,0,0,0,-3.8923,-3.894,-3.9068,-3.9003,-3.9017,-3.9004,-3.9046,-3.9041,-3.9064,-3.9058,-3.9055,-3.9038,-3.9059,-3.9071,-3.9171,-3.9246,-3.9097,-3.9103,-3.9435,-3.9443,-3.9451,-3.9578,0,0,0,0,0,0,-3.8918,-3.8939,-3.8993,-3.9005,-3.9021,-3.9159,-3.9051,-3.9045,-3.9076,-3.9064,-3.9082,-3.9081,-3.9056,-3.9161,-3.9177,-3.9253,-3.9108,-3.9428,-3.9439,-3.9448,-3.9567,-3.959,-3.9609,0,0,0,0,0,-3.8912,-3.9026,-3.8996,-3.9013,-3.9088,-3.9163,-3.9172,-3.9142,-3.9082,-3.9136,-3.9132,-3.908,-3.9235,-3.9172,-3.919,-3.9268,-3.9423,-3.9436,-3.9447,-3.9558,-3.9585,-3.9608,0,0,0,0,0,0,-3.9024,-3.9027,-3.8993,-3.9115,-3.914,-3.9146,-3.9213,-3.9172,-3.9214,-3.9202,-3.9162,-3.9167,-3.9275,-3.9281,-3.9211,-3.9405,-3.9319,-3.9335,-3.9397,-3.9423,-3.9443,-3.944,-3.9114,0,0,0,0,0,-3.9062,-3.9124,-3.9123,-3.923,-3.9244,-3.9227,-3.9259,-3.9233,-3.9257,-3.9267,-3.927,-3.9295,-3.9349,-3.9386,-3.9436,-3.9567,-3.957,-3.9629,-3.965,-3.9667,-3.9682,-3.9752,-3.9779,-3.9493,-3.9493,-3.9493,0,0,-3.9143,-3.9152,-3.9194,-3.9253,-3.9269,-3.9334,-3.9236,-3.9308,-3.9356,-3.9277,-3.9373,-3.9376,-3.9401,-3.9518,-3.9569,-3.9526,-3.9761,-3.9682,-3.9696,-3.9702,-3.9768,-3.9795,-3.9819,-3.9501,-3.95,-3.9498,0,0,-3.9323,-3.9336,-3.9428,-3.9445,-3.9471,-3.9458,-3.948,-3.9493,-3.9493,-3.9587,-3.953,-3.9585,-3.9679,-3.9699,-3.9722,-3.9909,-3.9864,-3.9926,-4.0036,-4.0105,-4.0127,-4.0147,-4.0215,-4.024,-3.9941,-3.9941,-3.9941,0,-3.9421,-3.9516,-3.948,-3.9556,-3.9584,-3.9515,-3.9607,-3.9626,-3.9667,-3.9688,-3.9638,-3.9755,-3.9767,-3.9888,-3.9933,-3.9954,-3.9978,-3.9925,-4.0127,-4.0146,-4.0164,-4.0229,-4.0254,-3.9949,-3.9948,-3.9947,-3.9946,0,-3.9634,-3.9701,-3.9771,-3.9812,-3.9848,-3.9932,-3.9908,-3.9948,-3.9919,-3.9912,-4.0009,-4.0021,-4.0072,-4.0098,-4.007,-4.0215,-4.0187,-4.0133,-4.0047,-4.02,-4.026,-4.0284,-3.996,-3.9957,-3.9955,-3.9953,0,0,-3.9888,-3.9908,-3.9934,-3.9952,-3.9974,-4.0025,-4.0105,-4.0155,-4.0191,-4.022,-4.0287,-4.0368,-4.0318,-4.0344,-4.0317,-4.0378,-4.0527,-4.0316,-4.0316,-4.0356,-4.0688,-4.073,-4.0759,-4.0495,-4.05,-4.0503,-4.0686,0,-4.0068,-4.0207,-4.0177,-4.0314,-4.0375,-4.031,-4.038,-4.0401,-4.0396,-4.0447,-4.044,-4.0499,-4.0428,-4.0444,-4.05,-4.0497,-4.0593,-4.0483,-4.0558,-4.0561,-4.0556,-4.079,-4.0834,-4.1006,-4.0709,-4.0713,-4.0716,0,-4.0297,-4.0336,-4.0479,-4.0492,-4.0516,-4.058,-4.0623,-4.0672,-4.0695,-4.0687,-4.0716,-4.0677,-4.0756,-4.0668,-4.0777,-4.0703,-4.0731,-4.0734,-4.074,-4.0747,-4.0649,-4.0805,-4.106,-4.1087,-4.0752,-4.0749,-4.0747,0,-4.047,-4.0558,-4.0655,-4.0672,-4.0688,-4.0735,-4.0744,-4.0761,-4.0793,-4.083,-4.085,-4.0896,-4.0922,-4.0959,-4.0934,-4.0871,-4.1048,-4.0956,-4.1044,-4.1045,-4.1085,-4.1084,-4.1351,-4.1101,-4.1101,-4.11,-4.11,0,-4.0676,-4.0766,-4.0733,-4.0793,-4.0892,-4.0855,-4.0954,-4.0955,-4.0972,-4.1031,-4.0976,-4.1033,-4.0995,-4.1049,-4.1029,-4.1124,-4.1135,-4.1131,-4.1125,-4.1137,-4.1138,-4.1157,-4.1145,-4.1107,-4.1106,-4.1104,-4.1103,0,-4.0886,-4.0867,-4.0969,-4.0976,-4.098,-4.1053,-4.1059,-4.1114,-4.1104,-4.118,-4.1195,-4.118,-4.124,-4.1218,-4.1282,-4.1269,-4.1389,-4.1367,-4.1382,-4.1377,-4.1466,-4.1459,-4.1756,-4.1793,-4.1519,-4.1521,-4.1523,0,-4.102,-4.1088,-4.1102,-4.1138,-4.1151,-4.1209,-4.1241,-4.1206,-4.1242,-4.1273,-4.1325,-4.138,-4.1422,-4.1521,-4.1516,-4.1564,-4.1544,-4.1644,-4.1551,-4.1561,-4.1547,-4.1544,-4.1551,-4.1664,-4.1667,-4.167,-4.1672,0,-4.1259,-4.1246,-4.1294,-4.134,-4.1379,-4.1414,-4.1443,-4.1475,-4.1442,-4.1485,-4.1546,-4.1579,-4.1643,-4.1699,-4.1743,-4.1751,-4.1707,-4.1701,-4.1724,-4.1738,-4.1744,-4.1743,-4.1435,-4.1695,-4.1692,-4.1691,-4.1689,-4.1689,-4.1436,-4.1493,-4.1513,-4.1568,-4.1586,-4.1615,-4.1668,-4.1664,-4.1714,-4.1765,-4.1741,-4.1812,-4.1831,-4.1885,-4.19,-4.1954,-4.1915,-4.1948,-4.1957,-4.1966,-4.1979,-4.1734,-4.1962,-4.1961,-4.1961,-4.196,-4.1959,0,-4.1673,-4.1682,-4.1733,-4.1776,-4.182,-4.1773,-4.1803,-4.1843,-4.1906,-4.1928,-4.1971,-4.204,-4.2094,-4.2092,-4.2142,-4.2186,-4.2167,-4.22,-4.2197,-4.22,-4.201,-4.1986,-4.2215,-4.2215,-4.2215,-4.2215,-4.2215,-4.2214,-4.1802,-4.1898,-4.1887,-4.1991,-4.1998,-4.2067,-4.2088,-4.2114,-4.2132,-4.2212,-4.2256,-4.2255,-4.2267,-4.2317,-4.2364,-4.2362,-4.2384,-4.2425,-4.2416,-4.2239,-4.2214,-4.219,-4.2167,-4.243,-4.243,-4.2602,-4.2604,-4.2605]},{"header":{"parameterUnit":"m.s-1","parameterCategory":1,"la1":30.2991,"la2":30.254,"lo1":-89.0895,"lo2":-89.0444,"dy":0.0017,"dx":0.0017,"nx":28,"ny":28,"refTime":"2023-11-14T03:00:00:Z","depth":0,"parameterNumber":3,"parameterNumberName":"V-component_of_WINDS"},"data":[0,0,0,0,0,0,0,0,0,0,0,0,0,0,0,0,0,0,0,0,0,0,0,0,0,0,0,0,0,0,0,0,0,0,0,0,0,0,0,0,0,0,0,0,0,0,0,0,0,0,0,0,0,0,0,0,0,0,-4.483,-4.4831,0,-4.4885,-4.4885,-4.4886,-4.4833,-4.4831,-4.4828,-4.4826,-4.4879,-4.4882,-4.4886,0,0,0,0,0,0,0,0,0,0,0,0,0,-4.4674,-4.4677,-4.483,-4.4831,-4.4831,-4.4885,-4.4886,-4.4886,-4.4833,-4.483,-4.4828,-4.4825,-4.4878,-4.4882,-4.4886,0,0,0,0,0,0,0,0,0,0,0,0,0,-4.4737,-4.4678,-4.483,-4.4811,-4.481,-4.4885,-4.4886,-4.4886,-4.4834,-4.483,-4.4827,-4.4824,-4.4877,-4.4881,-4.4886,-4.4981,0,0,-4.4902,-4.4904,0,0,0,0,0,0,0,0,-4.4733,-4.4742,-4.4813,-4.4813,-4.4812,-4.4849,-4.485,-4.4918,-4.4834,-4.4825,-4.4826,-4.4823,-4.4871,-4.4877,-4.4894,-4.4983,-4.4986,-4.4902,-4.4905,-4.4908,-4.4909,0,0,0,0,0,0,0,-4.4729,-4.474,-4.4851,-4.4814,-4.4813,-4.4799,-4.4804,-4.4862,-4.4865,-4.4825,-4.4821,-4.4829,-4.487,-4.4889,-4.4894,-4.4986,-4.4902,-4.4907,-4.491,-4.4912,-4.5154,-4.5158,0,0,0,0,0,0,-4.4727,-4.4736,-4.485,-4.4853,-4.4764,-4.4804,-4.481,-4.484,-4.4864,-4.4865,-4.4832,-4.4826,-4.4882,-4.4889,-4.4896,-4.5007,-4.4907,-4.4912,-4.4915,-4.5151,-4.5155,-4.5159,0,0,0,0,0,0,-4.4724,-4.4738,-4.4847,-4.4794,-4.4807,-4.481,-4.4844,-4.4843,-4.4861,-4.4869,-4.4869,-4.4851,-4.488,-4.4889,-4.496,-4.5008,-4.4914,-4.4919,-4.5147,-4.5152,-4.5157,-4.5231,0,0,0,0,0,0,-4.472,-4.4737,-4.4774,-4.4795,-4.481,-4.4912,-4.4847,-4.4846,-4.4871,-4.4864,-4.4887,-4.4887,-4.4878,-4.4953,-4.4965,-4.5014,-4.4923,-4.5143,-4.5149,-4.5155,-4.5224,-4.5238,-4.525,0,0,0,0,0,-4.4714,-4.4792,-4.4776,-4.479,-4.4857,-4.4915,-4.4923,-4.4912,-4.4875,-4.4911,-4.4916,-4.4887,-4.5001,-4.4961,-4.4974,-4.5025,-4.5139,-4.5147,-4.5155,-4.5219,-4.5235,-4.525,0,0,0,0,0,0,-4.4776,-4.4795,-4.4777,-4.4865,-4.4889,-4.4906,-4.4952,-4.493,-4.4965,-4.4957,-4.494,-4.4945,-4.5021,-4.503,-4.4984,-4.5116,-4.5064,-4.5075,-4.5108,-4.5124,-4.5137,-4.5133,-4.4927,0,0,0,0,0,-4.48,-4.4847,-4.486,-4.4936,-4.4949,-4.4949,-4.4974,-4.4963,-4.4987,-4.4996,-4.5006,-4.5029,-4.507,-4.5098,-4.5136,-4.5225,-4.5229,-4.5267,-4.5279,-4.529,-4.5299,-4.5346,-4.5363,-4.5184,-4.5184,-4.5184,0,0,-4.4849,-4.4865,-4.4896,-4.4949,-4.4966,-4.5014,-4.4958,-4.5011,-4.5046,-4.5004,-4.5072,-4.508,-4.5104,-4.5185,-4.5221,-4.5195,-4.5349,-4.53,-4.5308,-4.5312,-4.5355,-4.5372,-4.5387,-4.5189,-4.5188,-4.5187,0,0,-4.4964,-4.4981,-4.5046,-4.5065,-4.5092,-4.5091,-4.5107,-4.5127,-4.5131,-4.5199,-4.5168,-4.5209,-4.528,-4.5299,-4.5317,-4.5438,-4.5412,-4.5451,-4.5517,-4.5563,-4.5577,-4.559,-4.5632,-4.5647,-4.546,-4.546,-4.546,0,-4.5021,-4.5094,-4.5081,-4.5137,-4.5161,-4.5126,-4.519,-4.5208,-4.5246,-4.5263,-4.5233,-4.5321,-4.5335,-4.5419,-4.5449,-4.5465,-4.5481,-4.5448,-4.5577,-4.5589,-4.56,-4.564,-4.5656,-4.5465,-4.5464,-4.5464,-4.5463,0,-4.5163,-4.5214,-4.5262,-4.5301,-4.533,-4.539,-4.5384,-4.5415,-4.5401,-4.5402,-4.5471,-4.5487,-4.5527,-4.5546,-4.5533,-4.5628,-4.5611,-4.5579,-4.5526,-4.5622,-4.5659,-4.5674,-4.5471,-4.547,-4.5468,-4.5467,0,0,-4.5318,-4.5349,-4.5367,-4.5384,-4.5411,-4.5449,-4.5506,-4.5547,-4.5573,-4.56,-4.5646,-4.5707,-4.5678,-4.5699,-4.5688,-4.5728,-4.5821,-4.5691,-4.5692,-4.5714,-4.5925,-4.5948,-4.5966,-4.5804,-4.5807,-4.5809,-4.5923,0,-4.5433,-4.5534,-4.5524,-4.5619,-4.5665,-4.5632,-4.5682,-4.5703,-4.5706,-4.5743,-4.5745,-4.5789,-4.5748,-4.576,-4.5798,-4.5802,-4.5863,-4.5794,-4.5846,-4.5848,-4.5841,-4.5986,-4.6011,-4.6118,-4.5937,-4.594,-4.5942,0,-4.5581,-4.5614,-4.5715,-4.5734,-4.5753,-4.5798,-4.5834,-4.5871,-4.5894,-4.5892,-4.5916,-4.5897,-4.5953,-4.5899,-4.5974,-4.5927,-4.5948,-4.5953,-4.5956,-4.5961,-4.59,-4.5993,-4.6151,-4.6167,-4.5965,-4.5963,-4.5961,0,-4.5683,-4.5753,-4.5822,-4.5837,-4.5862,-4.5894,-4.5906,-4.5925,-4.595,-4.5981,-4.5996,-4.6032,-4.6052,-4.608,-4.6071,-4.6032,-4.6148,-4.6093,-4.6147,-4.6148,-4.6173,-4.6171,-4.6336,-4.6187,-4.6187,-4.6187,-4.6186,0,-4.5813,-4.5875,-4.5868,-4.5911,-4.5979,-4.5966,-4.6033,-4.604,-4.6058,-4.61,-4.6073,-4.6112,-4.6098,-4.6136,-4.6129,-4.6192,-4.6201,-4.6201,-4.6198,-4.6203,-4.6203,-4.6216,-4.6208,-4.6191,-4.619,-4.6189,-4.6188,0,-4.5938,-4.5937,-4.6009,-4.6027,-4.6032,-4.6082,-4.6096,-4.6135,-4.6135,-4.6188,-4.62,-4.62,-4.6243,-4.6237,-4.6285,-4.628,-4.6358,-4.6347,-4.6351,-4.6348,-4.6403,-4.6397,-4.6581,-4.6604,-4.6441,-4.6442,-4.6444,0,-4.6021,-4.6068,-4.6091,-4.6118,-4.6132,-4.6175,-4.62,-4.6188,-4.6215,-4.6244,-4.6279,-4.632,-4.6353,-4.6423,-4.6427,-4.6463,-4.6452,-4.6513,-4.6457,-4.646,-4.6452,-4.6449,-4.6453,-4.6524,-4.6526,-4.6528,-4.6529,0,-4.6167,-4.6164,-4.6202,-4.624,-4.6271,-4.6299,-4.6325,-4.6348,-4.6338,-4.637,-4.6414,-4.6439,-4.6489,-4.6529,-4.6563,-4.6573,-4.6549,-4.6547,-4.6561,-4.6566,-4.6567,-4.6567,-4.6381,-4.6543,-4.6541,-4.654,-4.6539,-4.6539,-4.6273,-4.6314,-4.6336,-4.6379,-4.6397,-4.6421,-4.6459,-4.6464,-4.6501,-4.6541,-4.6531,-4.6582,-4.6601,-4.6644,-4.6658,-4.6696,-4.6673,-4.6694,-4.6699,-4.6704,-4.671,-4.6561,-4.6702,-4.6702,-4.6701,-4.6701,-4.6701,0,-4.6417,-4.643,-4.647,-4.6507,-4.654,-4.6516,-4.6543,-4.6572,-4.6617,-4.6638,-4.6671,-4.6721,-4.6761,-4.6767,-4.6804,-4.6833,-4.6823,-4.6843,-4.684,-4.6843,-4.6729,-4.6713,-4.685,-4.685,-4.685,-4.685,-4.685,-4.685,-4.6496,-4.6563,-4.6562,-4.6637,-4.6648,-4.6698,-4.6716,-4.6737,-4.6754,-4.6812,-4.6845,-4.6849,-4.6864,-4.6902,-4.6936,-4.6936,-4.6951,-4.6975,-4.6972,-4.6866,-4.6851,-4.6836,-4.6821,-4.6979,-4.6979,-4.7081,-4.7082,-4.7083]}]]